Torna al catalogo

PALISADE

AttivoMilitarePO
NORAD 44634·PAYLOAD·🇺🇸 United States

Lanciato Oct 17, 2019 da Rocket Lab Launch Complex 1

Loading…

Prossimi Passaggi (prossime 24 ore)

TLE

AggiornatoSource: Space-Track

Epoca: Sep 14, 2026, 10:28 UTC

1 44634U 19069A   26257.43649134 -.00000373  00000-0 -10804-2 0  9992
2 44634  87.8807 261.9607 0009267 176.1642 183.9558 13.11909439330817

Traccia PALISADE in tempo reale con AllMySat

Download on the App Store